TimeCDT,TemperatureF,Dew PointF,Humidity,Sea Level PressureIn,VisibilityMPH,Wind Direction,Wind SpeedMPH,Gust SpeedMPH,PrecipitationIn,Events,Conditions,WindDirDegrees,DateUTC
12:53 AM,34.0,28.9,82,30.21,10.0,West,6.9,-,N/A,,Clear,270,2013-10-19 05:53:00
1:53 AM,35.1,28.9,78,30.22,10.0,West,10.4,-,N/A,,Clear,260,2013-10-19 06:53:00
2:53 AM,33.1,28.0,82,30.21,10.0,WSW,8.1,-,N/A,,Clear,250,2013-10-19 07:53:00
3:53 AM,33.1,28.0,82,30.19,10.0,WSW,11.5,-,N/A,,Clear,250,2013-10-19 08:53:00
4:53 AM,34.0,27.0,75,30.16,10.0,West,9.2,-,N/A,,Clear,260,2013-10-19 09:53:00
5:53 AM,33.1,27.0,78,30.15,10.0,WSW,10.4,-,N/A,,Clear,240,2013-10-19 10:53:00
6:53 AM,33.1,27.0,78,30.15,10.0,SW,9.2,-,N/A,,Clear,230,2013-10-19 11:53:00
7:53 AM,37.0,28.9,73,30.13,10.0,WSW,11.5,-,N/A,,Clear,240,2013-10-19 12:53:00
8:53 AM,41.0,30.0,65,30.14,10.0,WSW,13.8,-,N/A,,Clear,250,2013-10-19 13:53:00
9:53 AM,48.0,32.0,54,30.14,10.0,West,19.6,-,N/A,,Clear,260,2013-10-19 14:53:00
10:53 AM,55.0,32.0,42,30.11,10.0,WSW,18.4,-,N/A,,Clear,240,2013-10-19 15:53:00
11:53 AM,59.0,30.9,35,30.08,10.0,WSW,15.0,-,N/A,,Clear,240,2013-10-19 16:53:00
12:53 PM,63.0,30.0,29,30.05,10.0,SW,15.0,21.9,N/A,,Clear,230,2013-10-19 17:53:00
1:53 PM,64.9,21.0,19,30.02,10.0,WSW,9.2,-,N/A,,Clear,240,2013-10-19 18:53:00
2:53 PM,66.0,21.0,18,29.99,10.0,SSW,11.5,17.3,N/A,,Clear,210,2013-10-19 19:53:00
3:53 PM,68.0,21.9,17,29.96,10.0,SW,12.7,-,N/A,,Clear,220,2013-10-19 20:53:00
4:53 PM,68.0,21.0,17,29.95,10.0,SSW,10.4,-,N/A,,Clear,210,2013-10-19 21:53:00
5:53 PM,66.0,23.0,20,29.94,10.0,SSW,10.4,-,N/A,,Clear,210,2013-10-19 22:53:00
6:53 PM,61.0,25.0,25,29.94,10.0,South,5.8,-,N/A,,Clear,180,2013-10-19 23:53:00
7:53 PM,54.0,26.1,34,29.94,10.0,South,6.9,-,N/A,,Clear,180,2013-10-20 00:53:00
8:53 PM,48.0,28.9,48,29.94,10.0,SSW,8.1,-,N/A,,Clear,200,2013-10-20 01:53:00
9:53 PM,45.0,28.9,53,29.93,10.0,SSW,8.1,-,N/A,,Clear,210,2013-10-20 02:53:00
10:53 PM,45.0,28.0,52,29.92,10.0,SSW,9.2,-,N/A,,Clear,200,2013-10-20 03:53:00
11:53 PM,41.0,28.0,60,29.91,10.0,SSW,5.8,-,N/A,,Clear,200,2013-10-20 04:53:00